Location: Pl�tzky
(52.0521°N, 11.8020°E)
Time: 17:29:54
(UTC+00:00)

Cosmos 1943 Rocket - Pass Details

Date: 22 November 2019
Orbit: 810 x 845 km, 71.0° (Epoch: 05 December)

Event Time Altitude Azimuth Distance (km) Brightness Sun altitude
Rises 18:28:06 0° 321° (NW) 3,416 5.9 -29.4°
Reaches altitude 10° 18:32:11 10° 349° (N) 2,480 4.8 -30.0°
Enters shadow 18:33:35 12° 3° (N) 2,323 4.5 -30.2°
